Regional Weather Roundup
Issued by NWS

Home | Current Version | Previous Version | Graphics & Text | Print | Product List | Glossary On
Versions: 1 2 3 4 5 6 7 8 9 10 11 12 13 14 15 16 17 18 19 20 21 22 23 24 25 26 27 28 29 30 31 32 33 34 35 36 37 38 39 40 41 42 43 44 45 46 47 48 49 50
000
ASUS43 KLMK 311802
RWRKY
KENTUCKY REGIONAL WEATHER ROUNDUP
NATIONAL WEATHER SERVICE LOUISVILLE KY
200 PM EDT MON AUG 31 2015

NOTE "FAIR" INDICATES FEW OR NO CLOUDS BELOW 12,000 FEET
WITH NO SIGNIFICANT WEATHER AND/OR OBSTRUCTIONS TO VISIBILITY.

KYZ001>023-026-027-061>063-070>075-311900-
WESTERN AND SOUTH CENTRAL KENTUCKY

CITY           SKY/WX    TMP DP  RH WIND       PRES   REMARKS
PADUCAH        SUNNY     86  68  54 E6        30.10F
HENDERSON      PTSUNNY   84  66  54 S3        30.09F
OWENSBORO      PTSUNNY   86  68  54 VRB3      30.12F
HOPKINSVILLE   SUNNY     82  65  57 CALM      30.12F
BOWLING GREEN  SUNNY     85  63  47 E6        30.13F
GLASGOW        NOT AVBL
$$

KYZ024-025-028>034-038-045-046-053-311900-
NORTH CENTRAL KENTUCKY

CITY           SKY/WX    TMP DP  RH WIND       PRES   REMARKS
LOUISVILLE/SDF MOSUNNY   86  63  45 SW5       30.12F
LOUISVILLE/LOU MOSUNNY   86  63  45 W5        30.13F
FORT KNOX      SUNNY     84  64  50 VRB2      30.12F
$$

KYZ035>037-039>044-047>052-055>060-089>105-311900-
NORTHEAST KENTUCKY

CITY           SKY/WX    TMP DP  RH WIND       PRES   REMARKS
LEXINGTON      SUNNY     83  61  47 VRB3      30.15F
COVINGTON      MOSUNNY   85  67  54 W7        30.13F
FRANKFORT      SUNNY     84  60  44 NE3       30.13F
$$

KYZ054-064>069-076>088-106>120-311900-
SOUTHEAST KENTUCKY

CITY           SKY/WX    TMP DP  RH WIND       PRES   REMARKS
JACKSON        PTSUNNY   81  67  62 CALM      30.16F
LONDON         MOSUNNY   85  62  46 E8        30.15F
SOMERSET       NOT AVBL
MIDDLESBORO    SUNNY     83  64  51 CALM      30.15F
MONTICELLO     PTCLDY    85  68  56 VRB6      30.17F
$$




USA.gov is the U.S. government's official web portal to all federal, state and local government web resources and services.